QPF
0.00 0.00 0.00 0.00 0.00 0.00 0.00 0.01 0.05 0.08 0.10 0.11 0.11 0.13 0.12 0.11 0.11 0.13 0.15 0.15 0.18 0.18 0.16 0.16 0.15 0.14 0.14 0.15 0.17 0.19 0.19 0.17 0.17 0.17 0.17 0.15 0.14 0.12 0.10 0.09 0.07 0.06 0.05 0.04
0.00 0.00 0.00 0.00 0.00 0.00 0.00 0.01 0.02 0.04 0.06 0.05 0.05 0.05 0.04 0.04 0.04 0.04 0.04 0.04 0.05 0.05 0.06 0.07 0.06 0.05 0.04 0.05 0.06 0.08 0.09 0.09 0.10 0.10 0.08 0.06 0.06 0.06 0.08 0.07 0.06 0.06 0.07 0.08
0.00 0.00 0.00 0.00 0.00 0.00 0.00 0.01 0.01 0.02 0.02 0.02 0.02 0.02 0.01 0.01 0.01 0.01 0.01 0.01 0.01 0.00 0.01 0.01 0.01 0.00 0.00 0.01 0.01 0.01 0.02 0.02 0.02 0.02 0.02 0.02 0.02 0.02 0.03 0.04 0.05 0.06 0.06 0.08
0.00 0.00 0.00 0.00 0.00 0.00 0.00 0.00 0.00 0.00 0.01 0.00 0.00 0.00 0.00 0.00 0.00 0.00 0.00 0.00 0.00 0.00 0.00 0.00 0.00 0.00 0.00 0.00 0.00 0.00 0.00 0.00 0.01 0.01 0.01 0.01 0.01 0.01 0.01 0.02 0.02 0.03 0.03 0.04
0.00 0.00 0.00 0.00 0.00 0.00 0.00 0.00 0.00 0.00 0.00 0.00 0.00 0.01 0.00 0.00 0.00 0.00 0.00 0.00 0.00 0.00 0.00 0.00 0.00 0.00 0.00 0.00 0.00 0.00 0.00 0.00 0.00 0.00 0.00 0.00 0.00 0.00 0.00 0.00 0.01 0.01 0.01 0.01
0.00 0.00 0.00 0.00 0.00 0.00 0.00 0.00 0.00 0.00 0.00 0.00 0.00 0.01 0.00 0.00 0.00 0.00 0.00 0.00 0.00 0.00 0.00 0.00 0.00 0.00 0.00 0.00 0.00 0.00 0.00 0.00 0.00 0.00 0.00 0.00 0.00 0.00 0.00 0.00 0.00 0.00 0.00 0.00
0.00 0.00 0.00 0.00 0.00 0.00 0.00 0.00 0.00 0.00 0.00 0.00 0.00 0.00 0.00 0.00 0.00 0.00 0.00 0.00 0.00 0.00 0.00 0.00 0.00 0.00 0.00 0.00 0.00 0.00 0.00 0.00 0.00 0.00 0.00 0.00 0.00 0.00 0.00 0.00 0.00 0.00 0.00 0.00
0.00 0.00 0.00 0.00 0.00 0.00 0.00 0.00 0.00 0.00 0.00 0.00 0.00 0.00 0.00 0.00 0.00 0.00 0.00 0.00 0.00 0.00 0.00 0.00 0.00 0.00 0.00 0.00 0.00 0.00 0.00 0.00 0.00 0.00 0.00 0.00 0.00 0.00 0.00 0.00 0.00 0.00 0.00 0.00
0.00 0.00 0.00 0.00 0.00 0.00 0.00 0.00 0.00 0.00 0.00 0.00 0.00 0.00 0.00 0.00 0.00 0.00 0.00 0.00 0.00 0.00 0.00 0.00 0.00 0.00 0.00 0.00 0.00 0.00 0.00 0.00 0.00 0.00 0.00 0.00 0.00 0.00 0.00 0.00 0.00 0.00 0.00 0.00
0.00 0.00 0.00 0.00 0.00 0.00 0.00 0.00 0.00 0.00 0.00 0.00 0.00 0.00 0.00 0.00 0.00 0.00 0.00 0.00 0.00 0.00 0.00 0.00 0.00 0.00 0.00 0.00 0.00 0.00 0.00 0.00 0.00 0.00 0.00 0.00 0.00 0.00 0.00 0.00 0.00 0.00 0.00 0.00
0.00 0.00 0.00 0.00 0.00 0.00 0.00 0.00 0.00 0.00 0.00 0.00 0.00 0.00 0.00 0.00 0.00 0.00 0.00 0.00 0.00 0.00 0.00 0.00 0.00 0.00 0.00 0.00 0.00 0.00 0.00 0.00 0.00 0.00 0.00 0.00 0.00 0.00 0.00 0.00 0.00 0.00 0.00 0.00
0.00 0.00 0.00 0.00 0.00 0.00 0.00 0.00 0.00 0.00 0.00 0.00 0.00 0.00 0.00 0.00 0.00 0.00 0.00 0.00 0.00 0.00 0.00 0.00 0.00 0.00 0.00 0.00 0.00 0.00 0.00 0.00 0.00 0.00 0.00 0.00 0.01 0.00 0.00 0.00 0.00 0.00 0.00 0.00
0.00 0.00 0.00 0.00 0.00 0.00 0.00 0.00 0.00 0.00 0.00 0.00 0.00 0.00 0.00 0.00 0.00 0.00 0.00 0.00 0.00 0.00 0.00 0.00 0.00 0.00 0.00 0.00 0.00 0.00 0.00 0.00 0.00 0.00 0.00 0.00 0.01 0.01 0.01 0.01 0.00 0.00 0.00 0.00
0.00 0.00 0.00 0.00 0.00 0.00 0.00 0.00 0.00 0.00 0.00 0.00 0.00 0.00 0.00 0.00 0.00 0.00 0.00 0.00 0.00 0.00 0.00 0.00 0.00 0.00 0.00 0.00 0.00 0.00 0.00 0.00 0.00 0.00 0.00 0.00 0.00 0.01 0.01 0.02 0.02 0.01 0.00 0.00
0.00 0.00 0.00 0.00 0.00 0.00 0.00 0.00 0.00 0.00 0.00 0.00 0.00 0.00 0.00 0.00 0.00 0.00 0.00 0.00 0.00 0.00 0.00 0.00 0.00 0.00 0.00 0.00 0.00 0.00 0.00 0.00 0.00 0.00 0.00 0.00 0.00 0.00 0.00 0.00 0.01 0.01 0.01 0.01
0.00 0.00 0.00 0.00 0.00 0.00 0.00 0.00 0.00 0.00 0.00 0.00 0.00 0.00 0.00 0.00 0.00 0.00 0.00 0.00 0.00 0.00 0.00 0.00 0.00 0.00 0.00 0.00 0.00 0.00 0.00 0.00 0.00 0.00 0.00 0.00 0.00 0.00 0.00 0.00 0.00 0.01 0.01 0.01
0.00 0.00 0.00 0.00 0.00 0.00 0.00 0.00 0.00 0.00 0.00 0.00 0.00 0.00 0.00 0.00 0.00 0.00 0.00 0.00 0.00 0.00 0.00 0.00 0.00 0.00 0.00 0.00 0.00 0.00 0.00 0.00 0.00 0.00 0.00 0.00 0.00 0.00 0.00 0.00 0.00 0.00 0.00 0.00
0.00 0.00 0.00 0.00 0.00 0.00 0.00 0.00 0.00 0.00 0.00 0.00 0.00 0.00 0.00 0.00 0.00 0.00 0.00 0.00 0.00 0.00 0.00 0.00 0.00 0.00 0.00 0.00 0.00 0.00 0.00 0.00 0.00 0.00 0.00 0.00 0.00 0.00 0.00 0.00 0.00 0.00 0.00 0.00
0.00 0.00 0.00 0.00 0.00 0.00 0.00 0.00 0.00 0.00 0.00 0.00 0.00 0.00 0.00 0.00 0.00 0.00 0.00 0.00 0.00 0.00 0.00 0.00 0.00 0.00 0.00 0.00 0.00 0.00 0.00 0.00 0.00 0.00 0.00 0.00 0.00 0.00 0.00 0.00 0.00 0.00 0.00 0.00
0.00 0.00 0.00 0.00 0.00 0.00 0.00 0.00 0.00 0.00 0.00 0.00 0.00 0.00 0.00 0.00 0.00 0.00 0.00 0.00 0.00 0.00 0.00 0.00 0.00 0.00 0.00 0.00 0.00 0.00 0.00 0.00 0.00 0.00 0.00 0.00 0.00 0.00 0.00 0.00 0.00 0.00 0.00 0.00
0.00 0.00 0.00 0.00 0.00 0.00 0.00 0.00 0.00 0.00 0.00 0.00 0.00 0.00 0.00 0.00 0.00 0.00 0.00 0.00 0.00 0.00 0.00 0.00 0.00 0.00 0.00 0.00 0.00 0.00 0.00 0.00 0.00 0.00 0.00 0.00 0.00 0.00 0.00 0.00 0.00 0.00 0.00 0.00
0.00 0.00 0.00 0.00 0.00 0.00 0.00 0.00 0.00 0.00 0.00 0.00 0.00 0.00 0.00 0.00 0.00 0.00 0.00 0.00 0.00 0.00 0.00 0.00 0.00 0.00 0.00 0.00 0.00 0.00 0.00 0.00 0.00 0.00 0.00 0.00 0.00 0.00 0.00 0.00 0.00 0.00 0.00 0.00
0.00 0.00 0.00 0.00 0.00 0.00 0.00 0.00 0.00 0.00 0.00 0.00 0.00 0.00 0.00 0.00 0.00 0.00 0.00 0.00 0.00 0.00 0.00 0.00 0.00 0.00 0.00 0.00 0.00 0.00 0.00 0.00 0.00 0.00 0.00 0.00 0.00 0.00 0.00 0.00 0.00 0.00 0.00 0.00
0.00 0.00 0.00 0.00 0.00 0.00 0.00 0.00 0.00 0.00 0.00 0.00 0.00 0.00 0.00 0.00 0.00 0.00 0.00 0.00 0.00 0.00 0.00 0.00 0.00 0.00 0.00 0.00 0.00 0.00 0.00 0.00 0.00 0.00 0.00 0.00 0.00 0.00 0.00 0.00 0.00 0.00 0.00 0.00
0.00 0.00 0.00 0.00 0.00 0.00 0.00 0.00 0.00 0.00 0.00 0.00 0.00 0.00 0.00 0.00 0.00 0.00 0.00 0.00 0.00 0.00 0.00 0.00 0.00 0.00 0.00 0.00 0.00 0.00 0.00 0.00 0.00 0.00 0.00 0.00 0.00 0.00 0.00 0.00 0.00 0.00 0.00 0.00
0.00 0.00 0.00 0.00 0.00 0.00 0.00 0.00 0.00 0.00 0.00 0.00 0.00 0.00 0.00 0.00 0.00 0.00 0.00 0.00 0.00 0.00 0.00 0.00 0.00 0.00 0.00 0.00 0.00 0.00 0.00 0.00 0.00 0.00 0.00 0.00 0.00 0.00 0.00 0.00 0.00 0.00 0.00 0.00
0.00 0.00 0.00 0.00 0.00 0.00 0.00 0.00 0.00 0.00 0.00 0.00 0.00 0.00 0.00 0.00 0.00 0.00 0.00 0.00 0.00 0.00 0.00 0.00 0.00 0.00 0.00 0.00 0.00 0.00 0.00 0.00 0.00 0.00 0.00 0.00 0.00 0.00 0.00 0.00 0.00 0.00 0.00 0.00
MSLP
1020.29 1020.72 1021.19 1021.68 1022.19 1022.69 1023.12 1023.45 1023.64 1023.65 1023.46 1023.10 1022.57 1021.93 1021.23 1020.50 1019.80 1019.14 1018.54 1017.99 1017.49 1017.02 1016.57 1016.13 1015.72 1015.34 1015.01 1014.73 1014.51 1014.34 1014.21 1014.11 1014.00 1013.87 1013.71 1013.52 1013.31 1013.12 1012.95 1012.84 1012.80 1012.81 1012.89 1012.98
1020.20 1020.65 1021.11 1021.57 1022.03 1022.43 1022.76 1022.96 1023.02 1022.92 1022.65 1022.23 1021.69 1021.08 1020.44 1019.81 1019.22 1018.68 1018.20 1017.77 1017.36 1016.98 1016.61 1016.24 1015.87 1015.54 1015.23 1014.98 1014.77 1014.61 1014.47 1014.36 1014.23 1014.08 1013.90 1013.69 1013.48 1013.29 1013.13 1013.04 1013.01 1013.04 1013.12 1013.22
1020.03 1020.45 1020.88 1021.29 1021.68 1022.01 1022.24 1022.36 1022.34 1022.17 1021.86 1021.44 1020.94 1020.39 1019.84 1019.31 1018.83 1018.40 1018.02 1017.68 1017.36 1017.04 1016.72 1016.40 1016.09 1015.80 1015.53 1015.31 1015.13 1014.98 1014.86 1014.74 1014.60 1014.45 1014.26 1014.05 1013.84 1013.65 1013.50 1013.41 1013.38 1013.42 1013.49 1013.58
1019.84 1020.21 1020.58 1020.93 1021.24 1021.49 1021.66 1021.73 1021.67 1021.49 1021.21 1020.83 1020.40 1019.94 1019.49 1019.07 1018.68 1018.34 1018.03 1017.74 1017.47 1017.19 1016.90 1016.62 1016.34 1016.09 1015.87 1015.69 1015.55 1015.44 1015.34 1015.24 1015.12 1014.96 1014.78 1014.58 1014.37 1014.18 1014.04 1013.95 1013.92 1013.95 1014.00 1014.06
1019.66 1019.96 1020.25 1020.53 1020.77 1020.97 1021.09 1021.13 1021.08 1020.94 1020.71 1020.41 1020.08 1019.72 1019.37 1019.04 1018.73 1018.45 1018.17 1017.91 1017.64 1017.37 1017.10 1016.83 1016.58 1016.36 1016.19 1016.05 1015.96 1015.90 1015.84 1015.78 1015.69 1015.56 1015.40 1015.21 1015.02 1014.84 1014.70 1014.61 1014.57 1014.58 1014.61 1014.63
1019.48 1019.70 1019.91 1020.12 1020.31 1020.46 1020.57 1020.61 1020.58 1020.50 1020.35 1020.15 1019.92 1019.67 1019.41 1019.15 1018.90 1018.64 1018.38 1018.11 1017.83 1017.54 1017.25 1016.99 1016.75 1016.56 1016.43 1016.35 1016.31 1016.31 1016.31 1016.29 1016.25 1016.16 1016.03 1015.88 1015.71 1015.55 1015.42 1015.33 1015.29 1015.28 1015.28 1015.26
1019.26 1019.41 1019.57 1019.72 1019.86 1019.99 1020.09 1020.15 1020.17 1020.15 1020.09 1019.98 1019.85 1019.69 1019.52 1019.32 1019.09 1018.84 1018.57 1018.27 1017.96 1017.64 1017.33 1017.05 1016.83 1016.66 1016.56 1016.53 1016.56 1016.61 1016.67 1016.72 1016.73 1016.70 1016.62 1016.51 1016.38 1016.25 1016.14 1016.06 1016.02 1015.99 1015.97 1015.93
1018.97 1019.08 1019.19 1019.31 1019.43 1019.55 1019.66 1019.75 1019.82 1019.86 1019.88 1019.86 1019.81 1019.73 1019.61 1019.45 1019.24 1018.99 1018.70 1018.37 1018.02 1017.66 1017.33 1017.04 1016.81 1016.67 1016.60 1016.61 1016.69 1016.80 1016.92 1017.03 1017.11 1017.14 1017.12 1017.06 1016.98 1016.90 1016.82 1016.77 1016.73 1016.70 1016.66 1016.60
1018.57 1018.67 1018.77 1018.89 1019.01 1019.14 1019.27 1019.40 1019.51 1019.61 1019.69 1019.74 1019.76 1019.73 1019.65 1019.52 1019.32 1019.06 1018.75 1018.39 1018.01 1017.63 1017.28 1016.98 1016.75 1016.62 1016.58 1016.62 1016.74 1016.90 1017.07 1017.24 1017.38 1017.47 1017.52 1017.52 1017.50 1017.47 1017.44 1017.41 1017.39 1017.37 1017.33 1017.25
1018.07 1018.19 1018.31 1018.45 1018.60 1018.76 1018.92 1019.09 1019.24 1019.39 1019.51 1019.61 1019.66 1019.67 1019.62 1019.51 1019.32 1019.06 1018.75 1018.38 1017.98 1017.60 1017.23 1016.93 1016.71 1016.58 1016.56 1016.62 1016.76 1016.95 1017.17 1017.38 1017.57 1017.72 1017.83 1017.90 1017.94 1017.96 1017.98 1017.99 1018.00 1017.99 1017.95 1017.87
1017.51 1017.66 1017.83 1018.01 1018.21 1018.41 1018.62 1018.82 1019.01 1019.19 1019.34 1019.47 1019.55 1019.58 1019.55 1019.45 1019.28 1019.03 1018.72 1018.37 1017.98 1017.60 1017.25 1016.96 1016.74 1016.62 1016.60 1016.66 1016.81 1017.01 1017.25 1017.48 1017.71 1017.90 1018.07 1018.19 1018.29 1018.37 1018.43 1018.48 1018.52 1018.53 1018.51 1018.44
1016.94 1017.13 1017.35 1017.60 1017.85 1018.10 1018.35 1018.59 1018.82 1019.02 1019.20 1019.34 1019.43 1019.48 1019.46 1019.38 1019.23 1019.00 1018.72 1018.40 1018.04 1017.69 1017.36 1017.08 1016.88 1016.76 1016.73 1016.79 1016.92 1017.12 1017.35 1017.59 1017.83 1018.05 1018.25 1018.42 1018.57 1018.69 1018.80 1018.89 1018.95 1018.99 1018.98 1018.93
1016.40 1016.63 1016.91 1017.21 1017.53 1017.84 1018.14 1018.42 1018.67 1018.90 1019.08 1019.23 1019.33 1019.38 1019.38 1019.31 1019.19 1019.00 1018.76 1018.48 1018.17 1017.85 1017.56 1017.30 1017.11 1016.99 1016.95 1016.98 1017.09 1017.26 1017.47 1017.70 1017.93 1018.17 1018.39 1018.59 1018.77 1018.93 1019.07 1019.19 1019.28 1019.33 1019.35 1019.32
1015.91 1016.18 1016.51 1016.87 1017.24 1017.61 1017.96 1018.28 1018.56 1018.80 1019.00 1019.15 1019.25 1019.31 1019.32 1019.27 1019.17 1019.02 1018.83 1018.59 1018.34 1018.07 1017.81 1017.59 1017.40 1017.28 1017.21 1017.22 1017.29 1017.42 1017.59 1017.79 1018.01 1018.24 1018.46 1018.68 1018.88 1019.06 1019.23 1019.37 1019.48 1019.57 1019.61 1019.60
1015.48 1015.79 1016.16 1016.57 1016.99 1017.41 1017.81 1018.16 1018.47 1018.73 1018.93 1019.09 1019.19 1019.25 1019.27 1019.24 1019.17 1019.05 1018.90 1018.72 1018.52 1018.30 1018.08 1017.87 1017.70 1017.57 1017.48 1017.45 1017.48 1017.56 1017.68 1017.84 1018.03 1018.24 1018.46 1018.68 1018.89 1019.09 1019.27 1019.43 1019.57 1019.67 1019.74 1019.77
1015.11 1015.43 1015.83 1016.28 1016.75 1017.22 1017.65 1018.04 1018.38 1018.65 1018.87 1019.03 1019.13 1019.19 1019.22 1019.20 1019.16 1019.08 1018.97 1018.83 1018.67 1018.49 1018.30 1018.12 1017.95 1017.80 1017.69 1017.63 1017.61 1017.64 1017.72 1017.84 1017.99 1018.17 1018.37 1018.58 1018.80 1019.01 1019.21 1019.38 1019.54 1019.67 1019.76 1019.83
1014.76 1015.09 1015.52 1016.00 1016.50 1017.00 1017.47 1017.89 1018.25 1018.54 1018.77 1018.94 1019.05 1019.12 1019.15 1019.15 1019.12 1019.07 1018.99 1018.89 1018.77 1018.62 1018.46 1018.29 1018.12 1017.97 1017.84 1017.74 1017.67 1017.66 1017.68 1017.76 1017.87 1018.03 1018.21 1018.41 1018.62 1018.83 1019.04 1019.23 1019.41 1019.56 1019.68 1019.79
1014.43 1014.77 1015.21 1015.70 1016.23 1016.75 1017.24 1017.69 1018.07 1018.38 1018.63 1018.81 1018.93 1019.01 1019.06 1019.07 1019.07 1019.04 1018.98 1018.91 1018.81 1018.69 1018.55 1018.39 1018.23 1018.06 1017.90 1017.77 1017.67 1017.61 1017.59 1017.62 1017.70 1017.82 1017.98 1018.17 1018.38 1018.59 1018.81 1019.01 1019.20 1019.38 1019.53 1019.67
1014.12 1014.46 1014.89 1015.39 1015.92 1016.45 1016.96 1017.42 1017.82 1018.15 1018.42 1018.62 1018.76 1018.86 1018.93 1018.96 1018.98 1018.97 1018.95 1018.90 1018.82 1018.72 1018.60 1018.45 1018.28 1018.10 1017.93 1017.76 1017.63 1017.53 1017.47 1017.46 1017.50 1017.59 1017.73 1017.90 1018.10 1018.31 1018.53 1018.75 1018.95 1019.15 1019.33 1019.50
1013.86 1014.19 1014.60 1015.08 1015.59 1016.11 1016.62 1017.08 1017.49 1017.84 1018.13 1018.36 1018.53 1018.66 1018.76 1018.82 1018.87 1018.89 1018.89 1018.87 1018.82 1018.73 1018.62 1018.48 1018.31 1018.12 1017.93 1017.74 1017.57 1017.43 1017.34 1017.29 1017.30 1017.36 1017.47 1017.62 1017.81 1018.02 1018.24 1018.46 1018.68 1018.89 1019.10 1019.29
1013.69 1013.98 1014.35 1014.78 1015.26 1015.75 1016.23 1016.68 1017.10 1017.46 1017.77 1018.03 1018.24 1018.41 1018.54 1018.64 1018.72 1018.78 1018.82 1018.82 1018.80 1018.73 1018.64 1018.50 1018.33 1018.14 1017.93 1017.72 1017.53 1017.35 1017.22 1017.14 1017.11 1017.14 1017.22 1017.35 1017.53 1017.73 1017.95 1018.18 1018.41 1018.63 1018.85 1019.06
1013.63 1013.86 1014.16 1014.53 1014.94 1015.37 1015.81 1016.24 1016.64 1017.01 1017.34 1017.62 1017.87 1018.08 1018.26 1018.41 1018.54 1018.63 1018.71 1018.75 1018.75 1018.71 1018.63 1018.50 1018.34 1018.14 1017.93 1017.70 1017.48 1017.28 1017.11 1017.00 1016.93 1016.93 1016.98 1017.09 1017.24 1017.44 1017.65 1017.88 1018.12 1018.35 1018.58 1018.80
1013.70 1013.84 1014.05 1014.33 1014.65 1015.01 1015.39 1015.77 1016.15 1016.51 1016.85 1017.16 1017.43 1017.68 1017.91 1018.10 1018.27 1018.42 1018.53 1018.60 1018.63 1018.62 1018.56 1018.45 1018.29 1018.10 1017.88 1017.64 1017.40 1017.18 1016.99 1016.84 1016.75 1016.71 1016.73 1016.82 1016.95 1017.13 1017.34 1017.57 1017.80 1018.04 1018.28 1018.51
1013.88 1013.92 1014.03 1014.20 1014.42 1014.68 1014.99 1015.31 1015.65 1015.99 1016.32 1016.64 1016.94 1017.22 1017.48 1017.71 1017.92 1018.10 1018.24 1018.35 1018.41 1018.43 1018.39 1018.29 1018.15 1017.97 1017.75 1017.51 1017.27 1017.03 1016.82 1016.65 1016.53 1016.46 1016.46 1016.52 1016.63 1016.79 1016.99 1017.21 1017.44 1017.69 1017.93 1018.18
1014.13 1014.07 1014.07 1014.12 1014.24 1014.41 1014.63 1014.89 1015.17 1015.47 1015.78 1016.09 1016.40 1016.69 1016.97 1017.23 1017.46 1017.67 1017.84 1017.97 1018.05 1018.09 1018.07 1018.00 1017.88 1017.71 1017.51 1017.28 1017.04 1016.80 1016.58 1016.40 1016.26 1016.17 1016.14 1016.18 1016.27 1016.41 1016.59 1016.80 1017.03 1017.28 1017.53 1017.78
1014.40 1014.24 1014.14 1014.10 1014.12 1014.20 1014.33 1014.51 1014.74 1014.99 1015.27 1015.56 1015.85 1016.13 1016.41 1016.67 1016.91 1017.12 1017.30 1017.44 1017.54 1017.60 1017.60 1017.55 1017.46 1017.32 1017.14 1016.93 1016.71 1016.48 1016.27 1016.08 1015.93 1015.84 1015.79 1015.80 1015.87 1015.98 1016.14 1016.33 1016.56 1016.80 1017.05 1017.32
1014.61 1014.39 1014.21 1014.09 1014.04 1014.04 1014.10 1014.22 1014.38 1014.59 1014.82 1015.06 1015.32 1015.58 1015.83 1016.06 1016.28 1016.48 1016.66 1016.80 1016.90 1016.97 1016.99 1016.97 1016.90 1016.80 1016.65 1016.48 1016.29 1016.09 1015.90 1015.72 1015.58 1015.47 1015.41 1015.40 1015.44 1015.53 1015.66 1015.83 1016.03 1016.26 1016.51 1016.78
Thickness
5661 5657 5652 5643 5637 5634 5626 5617 5607 5601 5600 5602 5606 5608 5612 5615 5618 5621 5624 5629 5632 5635 5638 5643 5646 5649 5651 5654 5657 5659 5660 5661 5663 5665 5667 5668 5669 5670 5672 5674 5675 5677 5677 5677
5665 5663 5659 5648 5642 5638 5632 5626 5619 5615 5611 5618 5621 5621 5621 5623 5625 5626 5629 5634 5638 5641 5643 5646 5649 5651 5653 5655 5657 5658 5659 5659 5660 5662 5663 5664 5664 5665 5666 5666 5667 5668 5668 5667
5672 5670 5663 5650 5647 5643 5638 5636 5632 5623 5623 5629 5628 5628 5628 5630 5632 5633 5635 5639 5642 5646 5648 5651 5653 5655 5654 5656 5657 5657 5657 5657 5658 5658 5658 5658 5659 5658 5658 5657 5657 5657 5656 5655
5685 5673 5654 5653 5662 5655 5648 5646 5643 5639 5639 5639 5637 5638 5639 5640 5638 5638 5640 5643 5646 5650 5651 5654 5656 5657 5656 5656 5655 5654 5654 5653 5653 5653 5652 5652 5651 5650 5650 5649 5647 5646 5645 5644
5689 5678 5664 5661 5665 5662 5656 5651 5653 5650 5649 5651 5652 5647 5644 5647 5646 5645 5646 5647 5649 5653 5655 5656 5657 5658 5657 5654 5652 5650 5649 5649 5649 5648 5646 5645 5644 5643 5642 5641 5639 5637 5635 5634
5690 5682 5671 5673 5678 5676 5663 5653 5661 5659 5655 5656 5655 5640 5639 5650 5651 5651 5651 5652 5653 5655 5656 5656 5657 5658 5656 5652 5650 5648 5648 5647 5647 5645 5642 5640 5639 5638 5637 5635 5632 5630 5628 5626
5692 5689 5682 5684 5682 5675 5656 5658 5667 5665 5661 5658 5652 5648 5651 5656 5655 5655 5656 5656 5657 5657 5657 5657 5659 5658 5654 5652 5649 5649 5648 5647 5645 5642 5640 5637 5634 5633 5631 5629 5627 5624 5622 5620
5699 5691 5680 5690 5682 5676 5675 5679 5676 5670 5666 5661 5660 5660 5660 5659 5659 5659 5659 5659 5659 5659 5659 5661 5662 5659 5655 5652 5653 5652 5650 5647 5644 5641 5639 5636 5632 5629 5626 5624 5621 5618 5617 5615
5708 5695 5701 5699 5695 5693 5692 5684 5679 5674 5669 5667 5664 5663 5662 5662 5662 5662 5663 5663 5663 5663 5663 5664 5665 5663 5658 5657 5658 5656 5652 5649 5646 5642 5638 5634 5630 5625 5622 5619 5616 5613 5611 5609
5711 5705 5703 5702 5700 5694 5692 5688 5682 5678 5674 5671 5667 5666 5665 5666 5665 5665 5666 5667 5667 5667 5665 5666 5668 5668 5665 5664 5663 5661 5656 5652 5648 5643 5637 5632 5627 5623 5618 5614 5611 5609 5606 5604
5714 5715 5707 5703 5702 5697 5693 5689 5684 5680 5677 5673 5670 5669 5668 5669 5668 5668 5669 5671 5671 5669 5668 5670 5673 5672 5670 5668 5667 5664 5660 5655 5650 5644 5639 5632 5625 5619 5616 5610 5607 5605 5603 5601
5719 5727 5716 5708 5708 5703 5695 5689 5686 5682 5678 5677 5674 5671 5671 5671 5671 5672 5673 5674 5673 5673 5673 5675 5676 5675 5673 5671 5669 5666 5661 5656 5652 5647 5642 5637 5629 5621 5615 5613 5609 5606 5603 5600
5738 5738 5732 5724 5715 5708 5700 5695 5691 5686 5681 5678 5677 5676 5674 5674 5675 5675 5675 5675 5675 5677 5677 5678 5678 5676 5675 5673 5671 5668 5662 5658 5653 5650 5646 5641 5636 5628 5621 5615 5611 5608 5606 5602
5740 5736 5726 5722 5716 5711 5705 5700 5695 5690 5685 5682 5679 5677 5676 5676 5676 5675 5675 5677 5679 5681 5680 5680 5679 5676 5676 5675 5673 5669 5664 5659 5655 5651 5648 5644 5640 5636 5631 5624 5618 5613 5609 5606
5735 5734 5728 5724 5718 5712 5708 5702 5695 5690 5687 5684 5681 5679 5677 5675 5674 5676 5678 5679 5681 5682 5681 5680 5678 5677 5677 5677 5674 5670 5665 5661 5657 5654 5651 5648 5644 5640 5635 5631 5625 5619 5615 5611
5733 5732 5728 5722 5716 5712 5708 5702 5697 5693 5690 5686 5682 5680 5678 5677 5677 5678 5678 5679 5679 5679 5679 5679 5677 5677 5678 5678 5675 5670 5664 5661 5659 5656 5654 5651 5647 5643 5639 5634 5629 5623 5618 5614
5729 5724 5722 5718 5715 5712 5709 5705 5701 5698 5694 5689 5685 5682 5680 5678 5678 5677 5677 5679 5681 5681 5680 5678 5676 5677 5680 5680 5678 5674 5669 5665 5661 5658 5657 5654 5650 5646 5642 5637 5632 5626 5621 5617
5735 5729 5726 5722 5717 5712 5709 5707 5704 5701 5697 5693 5688 5683 5680 5678 5676 5675 5676 5678 5680 5680 5679 5677 5676 5676 5680 5681 5679 5678 5674 5670 5666 5664 5659 5656 5652 5649 5645 5640 5636 5631 5626 5622
5735 5730 5726 5723 5720 5714 5710 5707 5704 5702 5698 5694 5688 5683 5682 5679 5678 5676 5676 5676 5676 5674 5674 5676 5675 5678 5681 5680 5678 5677 5676 5674 5671 5667 5663 5657 5654 5653 5649 5645 5640 5636 5632 5628
5732 5729 5725 5722 5719 5715 5710 5707 5704 5700 5698 5694 5689 5685 5681 5680 5679 5676 5675 5674 5674 5672 5672 5673 5674 5678 5679 5678 5675 5676 5677 5676 5673 5670 5666 5662 5658 5656 5653 5649 5645 5641 5637 5632
5726 5724 5721 5718 5715 5712 5709 5706 5702 5697 5695 5692 5687 5684 5682 5681 5679 5676 5674 5672 5673 5671 5671 5672 5673 5674 5674 5673 5673 5675 5676 5676 5675 5673 5670 5666 5663 5660 5657 5653 5649 5645 5641 5637
5719 5718 5715 5713 5710 5706 5704 5702 5699 5695 5691 5688 5685 5683 5681 5679 5678 5676 5676 5673 5673 5670 5669 5670 5672 5669 5670 5670 5672 5675 5676 5677 5676 5674 5672 5669 5666 5663 5660 5657 5653 5650 5646 5642
5711 5711 5710 5708 5705 5701 5699 5697 5695 5691 5687 5685 5682 5680 5678 5677 5676 5674 5672 5675 5674 5669 5667 5668 5668 5668 5668 5670 5673 5676 5677 5677 5676 5675 5673 5671 5669 5666 5663 5661 5657 5654 5649 5645
5702 5703 5703 5702 5700 5696 5693 5691 5690 5688 5685 5682 5680 5679 5677 5675 5674 5674 5674 5673 5671 5668 5667 5667 5667 5667 5667 5670 5673 5676 5678 5678 5677 5676 5675 5673 5671 5669 5666 5663 5660 5657 5653 5649
5686 5690 5692 5692 5690 5688 5688 5687 5685 5682 5680 5677 5676 5675 5674 5673 5671 5672 5672 5672 5670 5667 5666 5667 5667 5666 5667 5669 5673 5675 5676 5677 5677 5676 5674 5673 5671 5669 5667 5665 5662 5659 5656 5652
5668 5672 5675 5679 5680 5679 5680 5679 5677 5675 5673 5670 5669 5670 5670 5670 5669 5668 5667 5666 5666 5665 5664 5664 5665 5666 5667 5669 5669 5670 5671 5673 5674 5673 5672 5671 5670 5669 5667 5665 5664 5661 5658 5655
5649 5654 5657 5659 5664 5667 5668 5669 5668 5668 5667 5665 5663 5664 5664 5665 5664 5663 5663 5662 5662 5663 5663 5663 5664 5665 5665 5665 5665 5666 5668 5669 5671 5671 5671 5670 5669 5668 5667 5666 5664 5662 5660 5657